Location: Voyageurs National Park
(48.5020°N, 92.9292°W)
Time: 14:53:34
(UTC-05:00)

Cosmos 1570 Rocket - Pass Details

Date: 19 January 2018
Orbit: 762 x 789 km, 74.1° (Epoch: 21 May)

Event Time Altitude Azimuth Distance (km) Brightness Sun altitude
Exits shadow 05:18:35 28° 353° (N) 1,402 5.2 -25.5°
Maximum altitude 05:21:14 60° 63° (ENE) 873 4.4 -25.1°
Drops below altitude 10° 05:26:22 10° 144° (SE) 2,293 6.9 -24.2°
Sets 05:28:46 0° 148° (SSE) 3,214 7.7 -23.8°
